When you browse on this site, cookies collect data to enhance your experience and personalize the content and advertising you see.
Visit our Privacy Policy to learn more. By continuing to use the site, you agree to this use of cookies and data.
  • în România
  • Lista ţărilor
  • Pe 7 zile
  • Temperatura apei
  • Hartă satelitară
  • Meteo pe hartă
  • Widget-uri
  • user-avatar
    Intrare

    Meteo pe oră la Mogilno

    Astăzi, 20 Mai, Luni

    Timp Temperatura Precipitaţii Vânt Presiune Umiditate
    00:00 +16°C° 0 mm 3 m/s 745 mmHg 94%
    01:00 +14°C° 0 mm 3 m/s 745 mmHg 95%
    02:00 +14°C° 0 mm 3 m/s 745 mmHg 95%
    03:00 +14°C° 0 mm 3 m/s 745 mmHg 96%
    04:00 +14°C° 0 mm 3 m/s 745 mmHg 96%
    05:00 +16°C° 0 mm 3 m/s 745 mmHg 94%
    06:00 +17°C° 0 mm 4 m/s 745 mmHg 92%
    07:00 +19°C° 0 mm 4 m/s 744 mmHg 90%
    08:00 +20°C° 0.6 mm 5 m/s 744 mmHg 85%
    09:00 +22°C° 0.6 mm 6 m/s 744 mmHg 81%
    10:00 +23°C° 0.6 mm 7 m/s 743 mmHg 77%
    11:00 +23°C° 1.3 mm 7 m/s 743 mmHg 75%
    12:00 +24°C° 1.3 mm 7 m/s 743 mmHg 73%
    13:00 +24°C° 1.3 mm 7 m/s 743 mmHg 71%
    14:00 +24°C° 0.6 mm 6 m/s 743 mmHg 70%
    15:00 +25°C° 0.6 mm 5 m/s 743 mmHg 69%
    16:00 +25°C° 0.6 mm 4 m/s 743 mmHg 68%
    17:00 +24°C° 0.3 mm 3 m/s 743 mmHg 72%
    18:00 +21°C° 0.3 mm 2 m/s 743 mmHg 75%
    19:00 +20°C° 0.3 mm 2 m/s 743 mmHg 79%
    20:00 +20°C° 0 mm 1 m/s 743 mmHg 80%
    21:00 +19°C° 0 mm 1 m/s 743 mmHg 81%
    22:00 +18°C° 0 mm 1 m/s 744 mmHg 83%
    23:00 +16°C° 0 mm 1 m/s 744 mmHg 84%

    Mâine, 21 Mai, Marţi

    Timp Temperatura Precipitaţii Vânt Presiune Umiditate
    00:00 +16°C° 0 mm 1 m/s 744 mmHg 85%
    01:00 +15°C° 0 mm 1 m/s 744 mmHg 86%
    02:00 +14°C° 0 mm 0 m/s 744 mmHg 86%
    03:00 +14°C° 0 mm 0 m/s 744 mmHg 86%
    04:00 +13°C° 0 mm 0 m/s 744 mmHg 87%
    05:00 +15°C° 0 mm 0 m/s 744 mmHg 84%
    06:00 +16°C° 0 mm 0 m/s 744 mmHg 81%
    07:00 +17°C° 0 mm 0 m/s 744 mmHg 79%
    08:00 +18°C° 0.3 mm 0 m/s 744 mmHg 75%
    09:00 +20°C° 0.3 mm 0 m/s 744 mmHg 72%
    10:00 +21°C° 0.3 mm 0 m/s 744 mmHg 68%
    11:00 +23°C° 2 mm 1 m/s 744 mmHg 68%
    12:00 +23°C° 2 mm 1 m/s 744 mmHg 68%
    13:00 +23°C° 2 mm 1 m/s 743 mmHg 68%
    14:00 +23°C° 1.5 mm 2 m/s 743 mmHg 71%
    15:00 +21°C° 1.5 mm 2 m/s 743 mmHg 75%
    16:00 +21°C° 1.5 mm 2 m/s 743 mmHg 78%
    17:00 +20°C° 0.2 mm 2 m/s 743 mmHg 82%
    18:00 +20°C° 0.2 mm 2 m/s 743 mmHg 86%
    19:00 +19°C° 0.2 mm 2 m/s 743 mmHg 90%
    20:00 +18°C° 0.1 mm 2 m/s 743 mmHg 92%
    21:00 +17°C° 0.1 mm 2 m/s 743 mmHg 94%
    22:00 +16°C° 0.1 mm 3 m/s 743 mmHg 96%
    23:00 +16°C° 0 mm 3 m/s 743 mmHg 96%

    Poimâine, 22 Mai, Miercuri

    Timp Temperatura Precipitaţii Vânt Presiune Umiditate
    00:00 +14°C° 0 mm 3 m/s 743 mmHg 97%
    01:00 +14°C° 0 mm 3 m/s 743 mmHg 97%
    02:00 +13°C° 0 mm 3 m/s 743 mmHg 97%
    03:00 +13°C° 0 mm 2 m/s 743 mmHg 97%
    04:00 +13°C° 0 mm 2 m/s 743 mmHg 98%
    05:00 +14°C° 0 mm 2 m/s 743 mmHg 94%
    06:00 +14°C° 0 mm 3 m/s 744 mmHg 91%
    07:00 +16°C° 0 mm 3 m/s 744 mmHg 88%
    08:00 +17°C° 0.1 mm 3 m/s 744 mmHg 86%
    09:00 +17°C° 0.1 mm 3 m/s 744 mmHg 83%
    10:00 +18°C° 0.1 mm 4 m/s 745 mmHg 81%
    11:00 +19°C° 0.2 mm 4 m/s 745 mmHg 78%
    12:00 +19°C° 0.2 mm 4 m/s 745 mmHg 75%
    13:00 +20°C° 0.2 mm 3 m/s 745 mmHg 72%
    14:00 +20°C° 0.8 mm 4 m/s 745 mmHg 73%
    15:00 +20°C° 0.8 mm 5 m/s 745 mmHg 75%
    16:00 +20°C° 0.8 mm 5 m/s 745 mmHg 77%
    17:00 +19°C° 1.2 mm 6 m/s 745 mmHg 82%
    18:00 +17°C° 1.2 mm 7 m/s 746 mmHg 86%
    19:00 +15°C° 1.2 mm 8 m/s 746 mmHg 91%
    20:00 +15°C° 0.9 mm 8 m/s 747 mmHg 92%
    21:00 +13°C° 0.9 mm 8 m/s 747 mmHg 92%
    22:00 +13°C° 0.9 mm 8 m/s 747 mmHg 93%
    23:00 +12°C° 0.3 mm 8 m/s 748 mmHg 92%

    23 Mai, Joi

    Timp Temperatura Precipitaţii Vânt Presiune Umiditate
    00:00 +12°C° 0.3 mm 8 m/s 748 mmHg 92%
    01:00 +12°C° 0.3 mm 8 m/s 748 mmHg 92%
    02:00 +11°C° 0.1 mm 8 m/s 749 mmHg 91%
    03:00 +11°C° 0.1 mm 8 m/s 749 mmHg 91%
    04:00 +10°C° 0.1 mm 8 m/s 749 mmHg 90%
    05:00 +10°C° 0.1 mm 8 m/s 750 mmHg 88%
    06:00 +10°C° 0.1 mm 8 m/s 751 mmHg 86%
    07:00 +9°C° 0.1 mm 7 m/s 751 mmHg 85%
    08:00 +9°C° 0.1 mm 7 m/s 751 mmHg 83%
    09:00 +9°C° 0.1 mm 6 m/s 752 mmHg 82%
    10:00 +9°C° 0.1 mm 5 m/s 752 mmHg 81%
    11:00 +10°C° 0 mm 5 m/s 752 mmHg 77%
    12:00 +13°C° 0 mm 5 m/s 753 mmHg 73%
    13:00 +14°C° 0 mm 5 m/s 753 mmHg 69%
    14:00 +14°C° 0 mm 5 m/s 753 mmHg 65%
    15:00 +15°C° 0 mm 6 m/s 753 mmHg 62%
    16:00 +16°C° 0 mm 6 m/s 753 mmHg 59%
    17:00 +14°C° 0 mm 5 m/s 753 mmHg 63%
    18:00 +13°C° 0 mm 4 m/s 753 mmHg 67%
    19:00 +12°C° 0 mm 3 m/s 753 mmHg 71%
    20:00 +10°C° 0 mm 3 m/s 753 mmHg 72%
    21:00 +9°C° 0 mm 3 m/s 753 mmHg 72%
    22:00 +7°C° 0 mm 3 m/s 753 mmHg 73%
    23:00 +7°C° 0 mm 3 m/s 753 mmHg 73%

    24 Mai, Vineri

    Timp Temperatura Precipitaţii Vânt Presiune Umiditate
    00:00 +5°C° 0 mm 3 m/s 753 mmHg 74%
    01:00 +6°C° 0 mm 2 m/s 753 mmHg 74%
    02:00 +5°C° 0 mm 2 m/s 753 mmHg 76%
    03:00 +5°C° 0 mm 2 m/s 752 mmHg 78%
    04:00 +5°C° 0 mm 2 m/s 752 mmHg 79%
    05:00 +7°C° 0 mm 2 m/s 752 mmHg 77%
    06:00 +9°C° 0 mm 2 m/s 752 mmHg 74%
    07:00 +12°C° 0 mm 2 m/s 752 mmHg 71%
    08:00 +13°C° 0 mm 2 m/s 752 mmHg 67%
    09:00 +15°C° 0 mm 2 m/s 751 mmHg 62%
    10:00 +16°C° 0 mm 2 m/s 751 mmHg 58%
    11:00 +18°C° 0 mm 1 m/s 751 mmHg 55%
    12:00 +19°C° 0 mm 1 m/s 750 mmHg 53%
    13:00 +20°C° 0 mm 1 m/s 750 mmHg 51%
    14:00 +20°C° 0 mm 1 m/s 749 mmHg 51%
    15:00 +20°C° 0 mm 1 m/s 749 mmHg 51%
    16:00 +18°C° 0 mm 0 m/s 748 mmHg 51%
    17:00 +19°C° 0 mm 1 m/s 748 mmHg 56%
    18:00 +18°C° 0 mm 1 m/s 747 mmHg 62%
    19:00 +16°C° 0 mm 2 m/s 747 mmHg 68%
    20:00 +15°C° 0 mm 2 m/s 747 mmHg 69%
    21:00 +14°C° 0 mm 2 m/s 747 mmHg 70%
    22:00 +13°C° 0 mm 2 m/s 747 mmHg 71%
    23:00 +12°C° 0 mm 2 m/s 747 mmHg 71%

    25 Mai, Sâmbătă

    Timp Temperatura Precipitaţii Vânt Presiune Umiditate
    00:00 +12°C° 0 mm 2 m/s 747 mmHg 71%
    01:00 +10°C° 0 mm 2 m/s 746 mmHg 70%
    02:00 +10°C° 0 mm 2 m/s 746 mmHg 71%
    03:00 +9°C° 0 mm 3 m/s 746 mmHg 72%
    04:00 +9°C° 0 mm 3 m/s 746 mmHg 73%
    05:00 +10°C° 0 mm 3 m/s 746 mmHg 72%
    06:00 +12°C° 0 mm 3 m/s 746 mmHg 71%
    07:00 +14°C° 0 mm 3 m/s 746 mmHg 70%
    08:00 +16°C° 0 mm 3 m/s 746 mmHg 69%
    09:00 +17°C° 0 mm 3 m/s 746 mmHg 68%
    10:00 +19°C° 0 mm 3 m/s 746 mmHg 67%
    11:00 +18°C° 0.2 mm 4 m/s 746 mmHg 73%
    12:00 +17°C° 0.2 mm 4 m/s 746 mmHg 79%
    13:00 +15°C° 0.2 mm 4 m/s 746 mmHg 86%
    14:00 +17°C° 0.1 mm 4 m/s 746 mmHg 83%
    15:00 +17°C° 0.1 mm 3 m/s 746 mmHg 79%
    16:00 +17°C° 0.1 mm 2 m/s 746 mmHg 76%
    17:00 +17°C° 0 mm 2 m/s 746 mmHg 79%
    18:00 +16°C° 0 mm 2 m/s 746 mmHg 82%
    19:00 +16°C° 0 mm 2 m/s 746 mmHg 85%
    20:00 +15°C° 0.1 mm 2 m/s 746 mmHg 88%
    21:00 +14°C° 0.1 mm 2 m/s 746 mmHg 90%
    22:00 +13°C° 0.1 mm 2 m/s 747 mmHg 93%
    23:00 +13°C° 0 mm 2 m/s 747 mmHg 94%
    Arată mai mult